Find KUIPER-00388

NORAD ID: 68922 Int'l Des: 2026-098D Owner: KUIP Country: US Constellation: amazon-leo operational
LEOCIRCULAR

リアルタイム位置

3D地球を読み込み中...

KUIPER-00388について

説明を読み込み中...

次回通過

Passes for default location (London). Set your location on the main map for personalized predictions.

高度履歴

Loading altitude history...

軌道要素

1 68922U 26098D 26125.83336806 -.00111534 00000-0 -35511-2 0 9999
2 68922 51.8760 271.8630 0020286 1.0835 254.8183 15.32193665 1450
Epoch: May 5, 2026 • Age: 7 hours

現在のステータス

高度 457.5 km
速度 7.65 km/s
衛星直下点 -6.26°S, 1.42°E
打ち上げ日 Apr 30, 2026
運用期間 6 days
タイプ internet

技術仕様

分類 Payload
質量 490.00 kg
乾燥質量 490.00 kg
総質量 490.00 kg
長さ 1.80 m
直径 0.70 m
スパン 5.00 m
形状 Box + 2 pan
製造者 KUIP
バスタイプ Kuiper
フェーズステータス In Orbit
所有者/国 KUIP/US

Most Searched